Location: Ellingshausen
(50.5460°N, 10.4723°E)
Time: 00:27:21
(UTC+00:00)

CZ-4 R/B - Pass Details

Date: 18 January 2026
Orbit: 676 x 743 km, 98.7° (Epoch: 18 February)

Event Time Altitude Azimuth Distance (km) Brightness Sun altitude
Rises 04:50:40 0° 14° (NNE) 3,103 7.2 -21.6°
Reaches altitude 10° 04:52:55 10° 14° (NNE) 2,190 6.4 -21.3°
Maximum altitude 04:57:44 86° 288° (WNW) 726 3.7 -20.5°
Drops below altitude 10° 05:02:37 10° 199° (SSW) 2,216 6.3 -19.7°
Sets 05:04:53 0° 199° (SSW) 3,142 7.1 -19.4°
